Temperature
19 19 19 19 19 19 19 19 19 19 19 19 19 19 19 19 19 18 18 18 18 18 18 18 18 18 18 17 17 17 17 17 17 17 16 16 16 16 16 16 16 16 16
19 19 19 19 19 19 19 19 19 19 19 19 19 19 19 19 19 18 18 18 18 18 18 18 18 18 18 17 17 17 17 17 17 17 16 16 16 16 16 16 16 16 16
19 19 19 19 19 19 19 19 19 19 19 19 19 19 18 18 18 18 18 18 18 18 18 18 18 18 18 18 17 17 17 17 17 17 17 16 16 16 16 16 16 16 16
19 19 19 19 19 19 19 19 19 19 19 19 19 19 18 18 18 18 18 18 18 18 18 18 18 18 18 17 17 17 17 17 17 17 17 16 16 16 16 16 16 16 16
19 19 19 19 19 19 19 19 19 19 19 19 19 19 19 18 18 18 18 18 18 18 18 18 18 18 18 18 17 17 17 17 17 17 17 16 16 16 16 16 16 16 16
19 19 19 19 19 19 19 19 19 19 19 19 19 19 19 19 19 19 18 18 18 18 18 18 18 18 18 18 17 17 17 17 17 17 17 16 16 16 16 16 16 16 16
19 19 19 19 19 19 19 19 19 19 19 19 19 18 18 18 19 18 18 18 18 18 18 18 18 18 18 18 17 17 17 17 17 17 16 16 16 16 16 16 16 16 16
19 19 19 19 19 19 19 19 19 19 18 18 18 18 18 18 18 18 18 18 18 18 18 18 18 18 18 18 17 17 17 17 17 17 16 16 16 16 16 16 16 16 15
19 19 19 19 19 19 19 19 19 19 19 19 18 18 18 18 18 18 18 18 18 18 18 18 18 18 18 17 17 17 17 17 17 16 16 16 16 16 16 15 15 15 15
19 19 19 19 19 19 19 19 19 19 19 19 19 18 18 18 18 18 18 18 18 18 18 18 18 18 18 17 17 17 17 17 16 16 16 16 16 16 15 15 15 15 15
19 19 19 19 19 19 19 19 19 19 19 19 19 19 19 18 18 18 18 18 18 18 18 18 18 18 17 17 17 17 17 17 16 16 16 16 16 16 15 15 15 15 15
19 19 19 19 19 19 19 19 19 19 19 18 18 18 18 18 18 18 18 17 17 17 18 18 18 17 17 17 17 17 17 17 16 16 16 16 16 16 15 15 15 15 15
19 19 19 19 19 19 19 19 19 18 18 18 18 18 18 18 18 18 18 17 17 17 17 17 17 17 17 17 17 17 17 17 16 16 16 16 15 15 15 15 15 15 15
19 18 18 18 18 18 18 18 18 18 18 18 18 18 18 18 18 18 18 17 17 17 17 17 17 17 17 17 17 17 17 17 16 16 16 16 15 15 15 15 15 15 15
18 18 18 18 18 18 18 18 18 18 18 18 18 18 18 18 18 17 17 17 17 16 16 17 17 17 17 17 17 16 16 16 16 16 15 15 15 15 15 15 15 15 15
18 18 18 18 18 18 18 18 18 18 18 18 18 18 18 18 17 17 17 17 17 17 16 16 16 16 16 16 16 16 16 16 15 15 15 15 15 15 15 15 14 14 14
18 18 18 18 18 18 17 17 18 18 18 18 18 17 17 17 17 17 17 17 17 17 16 16 16 16 16 16 16 16 16 16 15 15 15 15 15 15 15 14 14 14 14
18 17 17 17 17 17 17 17 17 17 17 17 17 17 17 17 17 17 17 17 17 16 16 16 16 16 15 15 15 15 15 15 15 15 15 15 14 14 14 14 14 14 14
17 17 17 17 17 17 17 17 17 17 17 17 17 17 17 16 16 16 16 16 16 16 16 15 15 15 15 15 15 15 15 15 15 15 15 14 14 14 14 14 14 14 14
17 17 17 17 17 17 17 17 17 17 16 16 16 16 16 16 16 16 16 16 16 16 15 15 15 15 15 15 14 14 14 14 14 14 14 14 14 14 14 14 14 14 14
17 16 16 16 16 16 16 16 16 16 16 16 16 16 16 16 16 16 15 15 15 15 15 15 15 14 14 14 14 14 14 14 14 14 14 14 14 14 14 13 13 13 13
16 16 16 16 16 16 16 16 16 16 16 15 15 15 15 15 15 15 15 15 15 14 14 14 14 14 14 14 14 13 13 13 13 13 13 13 13 13 13 13 13 13 13
16 16 16 16 16 16 16 15 15 15 15 15 15 15 15 15 15 15 15 14 14 14 14 14 14 13 13 13 13 13 13 13 13 13 13 13 13 13 13 13 13 13 13
15 15 15 15 15 15 15 15 15 15 15 15 15 15 14 14 14 14 14 14 14 14 14 14 13 13 13 13 13 13 12 12 12 12 12 12 12 12 12 12 12 12 12
15 15 15 15 15 15 15 15 15 15 15 14 14 14 14 14 14 14 14 14 14 14 14 13 13 13 13 13 13 12 12 12 12 12 12 12 12 12 12 12 12 12 12
15 15 15 15 14 14 14 14 14 14 14 14 14 14 14 14 14 14 13 13 13 13 13 13 13 13 13 12 12 12 12 12 12 12 12 12 11 11 11 11 11 11 11
Wind_Speed
3 2 2 2 2 3 2 2 2 2 2 2 3 4 4 5 6 7 8 12 13 12 12 12 12 11 11 10 10 10 11 11 10 10 9 9 9 9 9 9 9 10 9
3 3 3 2 2 3 3 3 2 2 2 2 3 3 4 5 6 6 7 9 12 12 12 12 12 11 11 11 11 11 12 12 12 11 10 10 10 10 10 9 9 10 10
4 3 3 2 1 2 3 2 1 2 2 3 2 2 3 4 6 6 7 7 8 10 10 11 11 11 11 12 12 11 12 12 12 12 11 11 11 10 10 10 10 9 10
5 3 3 2 1 2 2 2 2 2 2 2 2 2 2 3 4 5 6 6 6 7 9 11 11 11 12 12 13 13 12 12 12 12 12 11 10 10 10 10 10 10 10
5 3 2 1 1 2 2 2 2 2 2 1 1 1 1 2 3 4 4 5 6 7 7 9 12 12 12 12 13 13 13 13 13 12 12 12 11 10 9 9 10 10 10
4 3 2 2 2 2 1 1 1 1 1 2 1 1 0 1 2 3 4 4 5 7 7 7 7 8 10 10 11 12 13 13 13 13 13 12 11 11 10 10 9 9 9
3 3 2 2 2 2 1 1 1 1 1 1 2 2 2 1 0 2 2 3 3 5 5 5 5 6 6 8 9 10 11 12 12 12 12 12 11 10 10 10 9 9 9
3 3 3 2 2 2 2 1 1 1 0 1 2 2 1 3 2 1 1 3 3 3 3 5 5 6 5 5 6 9 9 11 12 11 11 11 11 11 10 10 10 9 9
3 3 3 2 1 2 1 1 1 2 1 1 1 3 2 2 2 2 1 1 2 2 3 3 5 5 6 5 5 7 8 9 9 9 10 10 10 10 10 10 10 10 9
2 3 2 2 2 2 1 1 1 1 2 1 1 1 2 4 2 1 2 1 1 1 2 3 3 4 6 5 5 5 6 6 7 8 8 9 9 10 10 10 10 10 9
1 1 2 2 1 1 1 1 1 1 1 1 1 1 0 1 2 2 1 2 2 1 1 2 1 2 4 5 5 5 5 5 7 8 8 8 8 8 9 9 9 9 10
0 0 1 1 1 1 1 1 1 2 1 1 1 1 2 2 2 2 2 2 2 2 2 1 1 2 3 5 6 6 6 6 7 8 8 8 7 8 8 8 8 8 8
0 1 1 1 1 1 1 1 1 1 1 1 1 1 1 2 2 3 3 1 1 2 2 1 1 1 2 3 4 6 7 7 7 7 8 8 8 8 8 7 7 7 6
1 1 1 1 0 1 1 1 1 0 1 1 1 1 0 1 1 2 3 2 0 2 2 3 2 1 2 3 4 6 6 7 8 9 8 8 8 9 8 8 8 7 7
1 1 1 1 1 1 1 1 1 0 1 1 0 1 0 1 0 1 1 3 3 2 3 3 2 2 2 2 4 3 4 7 9 11 10 9 9 9 8 8 8 8 7
1 1 1 1 1 1 1 1 1 0 1 0 0 1 1 1 1 0 0 1 2 3 3 3 3 3 2 1 2 3 4 5 7 8 9 9 9 9 8 8 8 7 7
1 1 2 2 2 1 1 1 1 1 1 0 1 1 1 1 1 1 0 0 1 2 2 3 2 2 1 2 2 2 2 2 3 6 7 7 8 8 8 8 7 7 7
1 1 1 2 2 1 1 1 0 0 1 0 0 1 1 1 1 1 1 0 0 1 2 2 2 2 2 2 2 1 2 2 3 5 6 6 7 7 6 7 7 6 6
1 1 1 2 2 1 0 0 1 1 1 1 0 0 1 0 1 1 0 0 0 1 0 1 2 2 2 1 2 2 2 2 3 2 3 4 4 4 4 5 6 7 6
2 1 1 1 1 1 1 1 1 1 1 0 0 1 1 1 1 1 0 0 0 1 0 0 2 2 2 2 1 1 3 3 3 2 2 2 3 4 4 5 5 5 6
3 2 1 1 1 1 0 0 1 1 1 0 1 1 1 0 1 0 0 1 1 1 0 0 1 2 2 2 2 1 2 3 3 2 2 2 2 2 3 5 5 5 6
2 2 1 1 1 1 0 1 1 0 1 1 1 1 0 1 1 1 1 0 1 2 2 2 2 2 3 3 2 2 2 2 3 2 1 3 2 3 4 4 5 6 6
2 2 2 2 1 2 1 1 1 1 1 1 2 1 1 1 1 1 2 2 2 2 3 3 4 4 4 4 3 2 2 2 4 3 1 3 2 3 4 5 5 5 5
2 2 2 1 1 2 1 1 1 1 1 1 2 2 2 1 1 0 1 2 3 3 4 3 4 5 5 4 4 3 4 3 4 3 1 2 2 3 4 4 4 4 4
2 2 2 2 2 3 2 1 1 1 0 2 2 2 2 3 3 1 0 2 3 5 5 5 5 6 6 5 3 1 1 1 3 3 1 2 2 2 3 3 4 4 4
2 2 2 2 3 3 2 1 2 1 1 2 3 3 3 3 4 2 2 2 4 5 4 5 4 4 4 4 4 4 4 2 2 3 3 1 1 1 2 3 3 3 3
Wind_Direction
120 121 123 130 134 138 137 145 152 155 156 159 154 146 146 147 151 160 172 179 182 183 185 186 186 188 189 193 198 198 199 202 203 201 199 202 204 205 208 209 214 216 214
124 121 120 118 135 152 146 145 155 151 138 131 134 141 149 153 156 162 171 179 184 187 190 191 192 196 198 202 207 207 209 210 209 208 207 210 209 210 212 215 219 220 218
118 115 112 102 116 126 124 118 107 97 106 113 126 145 155 152 159 163 168 176 187 195 197 197 198 202 206 210 214 216 216 214 213 210 209 212 213 212 215 218 221 223 222
122 115 97 93 96 98 102 105 102 91 90 113 129 161 159 162 168 171 172 180 190 200 208 209 209 210 214 218 220 221 222 220 216 211 210 213 215 216 220 223 226 226 225
113 115 105 107 114 96 98 117 107 121 126 134 147 164 170 174 175 178 185 191 197 208 211 218 220 222 222 224 225 224 224 223 216 215 214 214 216 218 221 224 229 231 232
112 114 109 96 101 92 82 106 124 119 155 170 143 106 227 214 188 184 192 191 201 210 214 222 225 229 229 226 226 226 226 221 218 219 218 219 220 222 225 227 230 231 232
120 113 104 89 97 116 149 133 116 105 100 109 83 36 357 343 232 197 189 181 197 205 203 214 220 225 228 232 235 236 230 224 221 219 219 219 220 222 224 224 227 228 228
134 125 117 115 116 110 79 76 100 105 169 139 125 102 13 353 344 256 201 198 208 205 206 213 214 215 216 217 234 238 236 232 227 223 222 222 222 223 225 226 227 229 230
113 112 117 124 126 132 132 134 128 136 185 278 160 150 152 217 299 333 296 220 201 200 214 216 214 212 203 202 222 232 231 232 229 228 227 225 222 221 224 228 229 230 230
114 132 132 136 137 136 149 206 164 150 145 242 290 201 181 170 161 305 333 320 268 213 219 225 221 202 194 198 208 215 226 232 228 227 227 229 227 226 230 232 233 232 229
90 133 131 132 133 144 169 185 143 121 148 176 197 210 120 114 146 164 258 312 338 325 267 234 194 185 181 186 190 197 206 214 220 226 230 232 230 229 233 235 239 238 235
39 226 129 130 156 178 184 182 166 141 157 160 172 158 159 164 176 164 197 242 285 302 306 275 221 197 194 198 201 205 211 213 220 224 227 229 231 231 234 237 239 240 240
210 239 188 180 187 205 178 149 122 140 154 144 166 175 186 209 186 163 161 210 261 289 318 323 275 226 205 201 211 213 216 210 211 222 225 228 230 231 235 237 237 237 240
199 187 174 162 136 102 141 137 116 126 106 109 86 124 158 282 179 168 169 163 274 319 323 287 308 270 229 214 227 226 221 213 212 222 226 228 231 232 234 234 232 232 232
178 180 180 158 146 106 119 127 112 139 102 96 79 75 34 320 37 141 162 170 173 239 283 274 281 284 245 226 235 229 226 223 218 222 225 228 231 231 228 229 230 230 229
192 145 104 107 91 85 109 129 141 128 109 259 170 81 335 306 1 3 201 188 169 179 239 264 255 271 273 263 249 245 241 240 231 230 228 228 232 231 226 226 225 223 224
130 121 118 105 85 64 81 112 150 148 143 294 347 63 330 337 7 340 350 145 174 162 221 282 280 293 303 291 304 279 259 244 244 235 227 228 232 234 231 226 222 219 222
143 158 136 120 106 80 55 95 145 114 136 154 338 49 342 6 12 346 31 26 259 180 177 254 294 315 296 278 274 284 287 280 262 242 230 228 232 229 224 218 215 216 217
129 137 125 132 130 119 113 135 144 132 129 153 154 140 281 48 348 314 358 15 312 19 124 202 272 290 296 312 335 324 317 310 297 263 238 238 235 220 218 219 218 219 218
152 189 187 157 160 152 164 249 173 140 153 177 194 197 246 201 218 258 323 314 77 50 22 242 278 293 287 298 355 323 318 306 295 298 293 261 250 243 241 236 228 221 221
169 185 187 171 175 166 196 159 172 142 149 190 297 273 265 141 114 180 105 191 156 162 189 242 278 297 294 313 300 278 291 298 292 285 302 284 269 270 262 251 238 230 226
165 173 179 180 186 256 261 147 166 189 202 200 241 282 296 52 356 340 325 262 164 183 197 204 244 258 267 267 275 288 288 318 301 290 259 278 250 256 260 250 242 232 230
179 178 190 169 199 262 248 201 181 176 218 221 212 212 254 330 352 336 327 339 314 280 224 204 220 239 245 246 243 273 267 258 259 269 249 273 271 267 265 258 245 241 236
197 203 207 196 219 254 238 210 156 137 228 248 221 206 203 255 282 273 299 322 301 289 266 235 218 237 248 240 225 233 242 261 279 283 218 254 270 268 282 274 255 245 241
208 214 199 186 219 262 271 211 162 157 286 287 265 237 218 233 270 275 242 291 303 299 292 281 263 260 263 262 236 193 248 274 290 285 264 223 264 274 284 278 270 254 251
209 206 200 204 217 243 276 231 159 164 237 283 286 269 256 264 271 259 227 237 272 281 294 305 301 295 281 276 253 208 201 213 252 275 261 215 262 293 299 285 274 269 260
Height
1519 1519 1520 1520 1521 1522 1523 1524 1525 1526 1527 1528 1528 1528 1529 1529 1530 1530 1531 1532 1532 1532 1533 1533 1534 1534 1535 1535 1535 1536 1536 1536 1537 1537 1538 1538 1539 1540 1541 1541 1542 1542 1543
1521 1521 1522 1523 1524 1524 1525 1526 1526 1527 1528 1528 1529 1529 1529 1530 1530 1530 1531 1532 1532 1533 1533 1533 1533 1534 1534 1534 1534 1535 1535 1535 1536 1536 1537 1537 1538 1539 1539 1539 1540 1540 1540
1524 1524 1524 1525 1525 1526 1527 1527 1528 1528 1528 1529 1529 1530 1530 1530 1531 1531 1531 1532 1532 1533 1533 1533 1533 1533 1533 1533 1533 1534 1534 1534 1534 1535 1535 1536 1536 1537 1537 1537 1538 1538 1538
1526 1526 1526 1526 1527 1527 1527 1528 1528 1529 1529 1529 1530 1530 1530 1530 1531 1531 1532 1532 1532 1532 1533 1533 1533 1532 1532 1532 1532 1532 1533 1533 1533 1533 1533 1534 1534 1535 1535 1535 1536 1536 1536
1527 1527 1527 1527 1528 1528 1528 1528 1529 1529 1529 1530 1530 1530 1530 1531 1531 1531 1531 1532 1532 1532 1532 1532 1532 1532 1532 1531 1531 1531 1531 1531 1531 1531 1531 1532 1532 1532 1533 1533 1533 1533 1533
1528 1527 1527 1528 1528 1528 1528 1529 1529 1529 1529 1530 1530 1530 1531 1531 1531 1531 1531 1531 1531 1532 1532 1532 1532 1531 1531 1531 1530 1530 1529 1529 1529 1529 1529 1529 1530 1530 1530 1530 1530 1531 1531
1529 1528 1528 1528 1528 1528 1528 1529 1529 1529 1529 1530 1530 1530 1530 1530 1530 1530 1530 1530 1530 1531 1531 1531 1531 1530 1530 1529 1529 1528 1528 1528 1527 1527 1527 1527 1527 1527 1527 1527 1528 1528 1528
1529 1529 1529 1529 1529 1529 1529 1529 1529 1529 1529 1530 1529 1529 1529 1531 1530 1530 1529 1529 1530 1530 1529 1530 1529 1529 1529 1528 1528 1527 1527 1526 1526 1525 1525 1525 1525 1525 1525 1525 1525 1525 1525
1529 1529 1529 1529 1529 1529 1528 1528 1529 1528 1528 1529 1529 1529 1529 1528 1529 1529 1529 1529 1529 1528 1528 1528 1528 1528 1527 1526 1526 1525 1525 1525 1524 1524 1524 1523 1523 1523 1523 1523 1523 1522 1522
1530 1529 1529 1529 1528 1528 1528 1528 1528 1528 1528 1528 1528 1528 1528 1528 1528 1528 1528 1528 1528 1528 1527 1527 1527 1526 1525 1525 1524 1524 1523 1523 1522 1522 1521 1521 1521 1520 1520 1520 1520 1520 1520
1530 1529 1529 1528 1528 1528 1528 1527 1527 1527 1527 1527 1527 1527 1527 1527 1527 1527 1526 1527 1527 1526 1526 1526 1525 1524 1524 1523 1523 1522 1521 1520 1520 1519 1519 1519 1518 1518 1517 1517 1517 1517 1517
1529 1529 1528 1528 1527 1527 1527 1527 1527 1526 1526 1526 1526 1526 1526 1525 1525 1525 1525 1525 1524 1525 1525 1524 1523 1523 1522 1521 1521 1520 1519 1518 1518 1517 1516 1516 1515 1515 1514 1514 1514 1514 1514
1528 1528 1527 1527 1526 1526 1526 1526 1525 1525 1525 1525 1525 1525 1525 1524 1524 1524 1524 1523 1523 1523 1522 1522 1522 1521 1520 1520 1519 1518 1517 1516 1515 1515 1514 1513 1513 1512 1512 1511 1511 1511 1511
1527 1527 1527 1526 1526 1525 1525 1524 1524 1524 1524 1524 1524 1524 1524 1523 1523 1523 1523 1522 1521 1521 1521 1520 1520 1519 1518 1518 1517 1516 1514 1514 1513 1512 1512 1511 1510 1509 1509 1508 1508 1508 1508
1526 1526 1526 1525 1524 1524 1524 1523 1523 1523 1523 1523 1523 1522 1522 1522 1522 1522 1522 1521 1521 1519 1519 1518 1518 1517 1516 1516 1514 1513 1512 1511 1510 1510 1509 1508 1507 1506 1505 1505 1505 1505 1504
1525 1525 1524 1524 1523 1523 1523 1522 1522 1521 1521 1521 1521 1521 1521 1520 1520 1520 1520 1519 1519 1518 1517 1516 1516 1515 1514 1513 1512 1511 1510 1509 1508 1507 1506 1505 1504 1503 1502 1502 1502 1501 1501
1523 1523 1523 1522 1522 1522 1521 1521 1520 1520 1520 1519 1519 1519 1519 1519 1518 1518 1517 1517 1517 1516 1514 1513 1513 1513 1512 1510 1509 1508 1507 1506 1505 1504 1504 1502 1502 1500 1500 1499 1499 1499 1498
1521 1521 1521 1520 1520 1520 1519 1519 1519 1518 1518 1517 1517 1517 1517 1517 1516 1516 1515 1514 1514 1514 1513 1511 1510 1510 1509 1508 1507 1505 1505 1504 1503 1502 1501 1500 1499 1498 1497 1496 1496 1496 1496
1520 1519 1519 1518 1518 1518 1518 1517 1517 1516 1516 1516 1515 1515 1514 1514 1514 1513 1513 1512 1511 1511 1510 1509 1508 1507 1506 1505 1504 1503 1502 1501 1500 1499 1498 1497 1496 1495 1494 1494 1493 1493 1493
1517 1517 1517 1516 1516 1516 1516 1515 1515 1515 1514 1514 1513 1513 1512 1512 1511 1511 1510 1509 1509 1508 1507 1506 1505 1504 1503 1502 1501 1500 1499 1498 1497 1496 1495 1495 1494 1493 1492 1491 1491 1491 1490
1514 1514 1514 1514 1513 1513 1513 1513 1513 1513 1512 1511 1511 1511 1510 1510 1509 1508 1507 1507 1506 1505 1504 1503 1502 1501 1500 1499 1498 1497 1496 1495 1494 1494 1493 1492 1491 1490 1489 1489 1488 1488 1488
1512 1512 1511 1511 1511 1511 1511 1511 1511 1510 1509 1509 1508 1508 1508 1507 1506 1506 1505 1504 1504 1503 1502 1501 1500 1498 1497 1496 1495 1494 1493 1492 1491 1491 1490 1489 1488 1487 1487 1486 1485 1485 1485
1509 1508 1508 1508 1508 1508 1508 1508 1508 1507 1507 1506 1506 1505 1505 1504 1504 1503 1502 1502 1501 1500 1500 1499 1497 1496 1494 1493 1492 1491 1490 1489 1488 1488 1487 1485 1485 1484 1484 1483 1482 1482 1481
1506 1506 1505 1505 1505 1505 1505 1505 1505 1504 1504 1503 1503 1502 1502 1501 1501 1500 1499 1498 1498 1497 1496 1495 1494 1493 1492 1491 1490 1489 1488 1486 1485 1485 1484 1482 1481 1480 1480 1480 1479 1478 1478
1503 1503 1502 1502 1502 1503 1503 1502 1502 1501 1501 1500 1500 1500 1499 1499 1498 1497 1496 1495 1494 1493 1493 1492 1491 1490 1489 1488 1487 1485 1484 1483 1481 1480 1480 1479 1477 1477 1476 1476 1475 1475 1475
1501 1500 1499 1499 1500 1500 1500 1499 1499 1498 1497 1497 1497 1497 1496 1496 1495 1494 1493 1492 1490 1490 1489 1488 1487 1486 1485 1484 1483 1482 1481 1479 1478 1477 1476 1476 1474 1474 1473 1472 1472 1472 1471